Location: Anumalkud?ru
(16.4847°N, 80.6636°E)
Time: 15:19:58
(UTC+00:00)

SL-16 R/B - Pass Details

Date: 11 April 2026
Orbit: 841 x 845 km, 71.0° (Epoch: 11 May)

Event Time Altitude Azimuth Distance (km) Brightness Sun altitude
Rises 22:45:36 0° 1° (N) 3,395 5.6 -23.9°
Reaches altitude 10° 22:48:25 10° 13° (NNE) 2,460 5.0 -23.3°
Maximum altitude 22:53:08 27° 70° (ENE) 1,567 4.3 -22.2°
Drops below altitude 10° 22:57:50 10° 127° (SE) 2,456 5.1 -21.1°
Sets 23:00:37 0° 139° (SE) 3,389 5.7 -20.5°
